Station Historical Data
Daily Summary for October 18, 2011 Units:  English    Metric   Both
« Previous Day
Next Day »
Daily Weekly Monthly Yearly Custom
  High: Low: Average:
Temperature: 77.1 °F 46.7 °F 62.2 °F
Dew Point: 61.9 °F 45.1 °F 54.9 °F
Humidity: 96% 49% 79%
Wind Speed: 17.0mph 0.0mph 4.8mph
Wind Gust: 31.0mph - -
Wind- - SSW
Pressure: 29.76 in 29.50 in -
Precipitation: 0.20 in    
Historical Graphs
 
 
Tabular Data for October 18, 2011
Time Temperature Dew Point Pressure Wind Wind Speed Wind Gust Humidity Rainfall Rate (Hourly) Conditions
00:00 65.7 °F 54.9 °F 29.76 in SSE 2.0 mph 3.0 mph 68% 0.00 in
00:01 65.6 °F 54.8 °F 29.76 in SSE 3.0 mph 3.0 mph 68% 0.00 in
00:02 65.6 °F 54.8 °F 29.76 in SSE 2.0 mph 3.0 mph 68% 0.00 in
00:07 65.3 °F 54.9 °F 29.76 in SSE 3.0 mph 4.0 mph 69% 0.00 in
00:12 64.8 °F 54.8 °F 29.76 in SSE 3.0 mph 5.0 mph 70% 0.00 in
00:17 64.9 °F 54.9 °F 29.76 in SSE 3.0 mph 4.0 mph 70% 0.00 in
00:22 64.9 °F 54.9 °F 29.76 in SE 3.0 mph 4.0 mph 70% 0.00 in
00:27 64.9 °F 54.9 °F 29.76 in South 3.0 mph 4.0 mph 70% 0.00 in
00:32 64.9 °F 55.3 °F 29.76 in South 2.0 mph 4.0 mph 71% 0.00 in
00:37 64.7 °F 55.5 °F 29.76 in South 3.0 mph 4.0 mph 72% 0.00 in
00:42 64.2 °F 55.4 °F 29.75 in SSE 3.0 mph 4.0 mph 73% 0.00 in
00:47 64.1 °F 55.3 °F 29.75 in SE 2.0 mph 5.0 mph 73% 0.00 in
00:52 63.8 °F 55.4 °F 29.75 in South 2.0 mph 3.0 mph 74% 0.00 in
00:57 63.6 °F 55.5 °F 29.75 in SSE 2.0 mph 3.0 mph 75% 0.00 in
01:02 63.4 °F 55.3 °F 29.75 in SE 3.0 mph 3.0 mph 75% 0.00 in
01:07 63.5 °F 55.4 °F 29.75 in South 2.0 mph 3.0 mph 75% 0.00 in
01:12 63.5 °F 55.4 °F 29.74 in SSE 2.0 mph 3.0 mph 75% 0.00 in
01:17 63.6 °F 55.5 °F 29.74 in South 2.0 mph 3.0 mph 75% 0.00 in
01:22 63.5 °F 55.8 °F 29.74 in SSE 2.0 mph 3.0 mph 76% 0.00 in
01:27 63.4 °F 55.7 °F 29.74 in SSE 1.0 mph 3.0 mph 76% 0.00 in
01:32 63.4 °F 55.7 °F 29.74 in SSE 2.0 mph 2.0 mph 76% 0.00 in
01:37 62.9 °F 55.6 °F 29.73 in SSE 1.0 mph 2.0 mph 77% 0.00 in
01:42 62.8 °F 55.5 °F 29.73 in SSE 3.0 mph 3.0 mph 77% 0.00 in
01:47 62.8 °F 55.8 °F 29.73 in SE 3.0 mph 3.0 mph 78% 0.00 in
01:52 62.8 °F 55.8 °F 29.73 in SSE 3.0 mph 3.0 mph 78% 0.00 in
01:57 62.9 °F 55.9 °F 29.73 in SSE 2.0 mph 3.0 mph 78% 0.00 in
02:02 62.9 °F 55.9 °F 29.73 in SSE 2.0 mph 3.0 mph 78% 0.00 in
02:07 62.9 °F 55.9 °F 29.73 in SE 1.0 mph 3.0 mph 78% 0.00 in
02:12 62.7 °F 55.8 °F 29.73 in SSE 2.0 mph 3.0 mph 78% 0.00 in
02:17 62.4 °F 55.8 °F 29.73 in SE 1.0 mph 2.0 mph 79% 0.00 in
02:22 62.3 °F 55.7 °F 29.72 in SSE 1.0 mph 2.0 mph 79% 0.00 in
02:27 62.3 °F 56.1 °F 29.73 in SSE 1.0 mph 2.0 mph 80% 0.00 in
02:33 62.3 °F 56.1 °F 29.72 in SSE 1.0 mph 2.0 mph 80% 0.00 in
02:38 62.2 °F 56.0 °F 29.72 in SSE 1.0 mph 1.0 mph 80% 0.00 in
02:43 61.9 °F 55.7 °F 29.72 in SSE 1.0 mph 1.0 mph 80% 0.00 in
02:48 61.4 °F 55.5 °F 29.72 in SSE 1.0 mph 2.0 mph 81% 0.00 in
02:53 61.3 °F 55.8 °F 29.72 in SSE 1.0 mph 2.0 mph 82% 0.00 in
02:58 61.2 °F 55.7 °F 29.72 in SSE 1.0 mph 2.0 mph 82% 0.00 in
03:03 61.0 °F 55.8 °F 29.72 in SSE 1.0 mph 2.0 mph 83% 0.00 in
03:08 60.9 °F 55.7 °F 29.72 in SSE 1.0 mph 1.0 mph 83% 0.00 in
03:13 60.7 °F 55.8 °F 29.72 in SSE 1.0 mph 1.0 mph 84% 0.00 in
03:18 60.5 °F 56.0 °F 29.71 in SSE 1.0 mph 1.0 mph 85% 0.00 in
03:23 60.7 °F 56.2 °F 29.71 in SE 1.0 mph 1.0 mph 85% 0.00 in
03:28 60.8 °F 55.9 °F 29.71 in SE 1.0 mph 1.0 mph 84% 0.00 in
03:33 60.9 °F 56.0 °F 29.71 in SE 1.0 mph 2.0 mph 84% 0.00 in
03:38 60.7 °F 55.5 °F 29.71 in SSE 1.0 mph 2.0 mph 83% 0.00 in
03:43 60.4 °F 55.5 °F 29.71 in SE 1.0 mph 1.0 mph 84% 0.00 in
03:48 60.3 °F 55.5 °F 29.71 in SE 1.0 mph 2.0 mph 84% 0.00 in
03:53 60.6 °F 56.1 °F 29.71 in SE 1.0 mph 2.0 mph 85% 0.00 in
03:58 60.6 °F 55.8 °F 29.71 in South 1.0 mph 1.0 mph 84% 0.00 in
04:03 60.4 °F 55.5 °F 29.71 in Calm     84% 0.00 in
04:08 59.9 °F 55.4 °F 29.71 in Calm     85% 0.00 in
04:13 59.4 °F 55.2 °F 29.71 in Calm     86% 0.00 in
04:18 59.4 °F 55.8 °F 29.71 in SSE 1.0 mph 1.0 mph 88% 0.00 in
04:23 59.9 °F 55.7 °F 29.71 in Calm     86% 0.00 in
04:28 59.8 °F 55.3 °F 29.71 in Calm     85% 0.00 in
04:33 59.5 °F 55.6 °F 29.71 in SE 1.0 mph 1.0 mph 87% 0.00 in
04:38 59.7 °F 55.8 °F 29.71 in Calm   1.0 mph 87% 0.00 in
04:43 59.6 °F 55.7 °F 29.71 in Calm   1.0 mph 87% 0.00 in
04:48 59.6 °F 55.4 °F 29.71 in Calm     86% 0.00 in
04:53 59.5 °F 55.6 °F 29.71 in ESE 1.0 mph 1.0 mph 87% 0.00 in
04:58 59.6 °F 55.7 °F 29.71 in ESE 2.0 mph 3.0 mph 87% 0.00 in
05:03 59.5 °F 55.3 °F 29.71 in SE 3.0 mph 3.0 mph 86% 0.00 in
05:08 60.3 °F 56.1 °F 29.70 in SE 2.0 mph 4.0 mph 86% 0.00 in
05:13 60.6 °F 56.1 °F 29.70 in Calm   3.0 mph 85% 0.00 in
05:18 60.4 °F 55.5 °F 29.70 in SE 1.0 mph 2.0 mph 84% 0.00 in
05:23 60.2 °F 55.7 °F 29.70 in SE 2.0 mph 2.0 mph 85% 0.00 in
05:28 60.2 °F 55.7 °F 29.70 in ESE 2.0 mph 4.0 mph 85% 0.00 in
05:33 60.5 °F 56.0 °F 29.70 in SE 3.0 mph 4.0 mph 85% 0.00 in
05:38 60.7 °F 55.8 °F 29.70 in ESE 2.0 mph 4.0 mph 84% 0.00 in
05:43 60.7 °F 55.8 °F 29.70 in ESE 2.0 mph 3.0 mph 84% 0.00 in
05:48 60.8 °F 55.9 °F 29.70 in SE 2.0 mph 3.0 mph 84% 0.00 in
05:53 60.2 °F 55.3 °F 29.70 in ESE 1.0 mph 2.0 mph 84% 0.00 in
05:58 59.7 °F 55.2 °F 29.70 in ESE 3.0 mph 3.0 mph 85% 0.00 in
06:03 59.5 °F 55.3 °F 29.70 in ESE 2.0 mph 3.0 mph 86% 0.00 in
06:08 59.3 °F 55.1 °F 29.70 in ESE 2.0 mph 3.0 mph 86% 0.00 in
06:14 59.4 °F 55.5 °F 29.70 in SE 1.0 mph 2.0 mph 87% 0.00 in
06:19 59.2 °F 55.3 °F 29.70 in ESE 2.0 mph 3.0 mph 87% 0.00 in
06:24 59.2 °F 55.3 °F 29.70 in ESE 3.0 mph 3.0 mph 87% 0.00 in
06:29 59.3 °F 55.4 °F 29.70 in SE 2.0 mph 4.0 mph 87% 0.00 in
06:34 59.3 °F 55.8 °F 29.70 in SE 2.0 mph 3.0 mph 88% 0.00 in
06:39 59.1 °F 55.2 °F 29.71 in ESE 1.0 mph 4.0 mph 87% 0.00 in
06:44 59.1 °F 55.2 °F 29.71 in SE 2.0 mph 2.0 mph 87% 0.00 in
06:49 59.0 °F 55.1 °F 29.71 in SE 2.0 mph 2.0 mph 87% 0.00 in
06:54 59.1 °F 55.5 °F 29.71 in ESE 2.0 mph 2.0 mph 88% 0.00 in
06:59 59.0 °F 55.1 °F 29.71 in ESE 2.0 mph 2.0 mph 87% 0.00 in
07:04 58.7 °F 55.2 °F 29.71 in East 2.0 mph 3.0 mph 88% 0.00 in
07:09 58.6 °F 55.4 °F 29.70 in East 2.0 mph 2.0 mph 89% 0.00 in
07:14 58.5 °F 55.3 °F 29.70 in East 2.0 mph 3.0 mph 89% 0.00 in
07:19 58.5 °F 55.3 °F 29.70 in ESE 3.0 mph 4.0 mph 89% 0.00 in
07:24 58.4 °F 55.2 °F 29.70 in ESE 3.0 mph 4.0 mph 89% 0.00 in
07:29 58.3 °F 55.1 °F 29.70 in ESE 4.0 mph 5.0 mph 89% 0.00 in
07:34 58.5 °F 55.3 °F 29.70 in SE 3.0 mph 4.0 mph 89% 0.00 in
07:39 58.5 °F 55.3 °F 29.70 in SE 2.0 mph 4.0 mph 89% 0.00 in
07:44 58.5 °F 55.3 °F 29.70 in ESE 3.0 mph 5.0 mph 89% 0.00 in
07:49 58.5 °F 55.3 °F 29.69 in ESE 4.0 mph 4.0 mph 89% 0.00 in
07:54 58.5 °F 55.3 °F 29.69 in ESE 3.0 mph 5.0 mph 89% 0.00 in
07:59 58.5 °F 55.3 °F 29.69 in SE 3.0 mph 5.0 mph 89% 0.00 in
08:04 58.5 °F 55.3 °F 29.69 in ESE 3.0 mph 4.0 mph 89% 0.00 in
08:09 58.4 °F 54.9 °F 29.69 in ESE 2.0 mph 3.0 mph 88% 0.00 in
08:14 58.3 °F 55.1 °F 29.69 in SE 1.0 mph 2.0 mph 89% 0.00 in
08:19 58.4 °F 54.9 °F 29.69 in SSE 4.0 mph 4.0 mph 88% 0.00 in
08:24 58.8 °F 55.3 °F 29.69 in SE 2.0 mph 4.0 mph 88% 0.00 in
08:29 59.0 °F 55.5 °F 29.69 in SE 3.0 mph 4.0 mph 88% 0.00 in
08:34 59.9 °F 55.7 °F 29.69 in ESE 2.0 mph 6.0 mph 86% 0.00 in
08:39 60.8 °F 55.9 °F 29.69 in SSE 4.0 mph 7.0 mph 84% 0.00 in
08:44 61.5 °F 56.3 °F 29.69 in SSW 2.0 mph 7.0 mph 83% 0.00 in
08:49 62.0 °F 56.5 °F 29.69 in SSE 7.0 mph 7.0 mph 82% 0.00 in
08:54 62.6 °F 56.7 °F 29.69 in SSE 4.0 mph 6.0 mph 81% 0.00 in
08:59 63.0 °F 57.4 °F 29.70 in SSE 4.0 mph 5.0 mph 82% 0.00 in
09:04 63.1 °F 57.2 °F 29.70 in SSW 2.0 mph 5.0 mph 81% 0.00 in
09:09 63.2 °F 56.9 °F 29.70 in SW 3.0 mph 5.0 mph 80% 0.00 in
09:14 63.2 °F 56.9 °F 29.70 in SSE 2.0 mph 3.0 mph 80% 0.00 in
09:19 63.2 °F 56.9 °F 29.70 in South 2.0 mph 3.0 mph 80% 0.00 in
09:24 63.1 °F 57.5 °F 29.70 in SSE 4.0 mph 4.0 mph 82% 0.00 in
09:29 63.3 °F 57.4 °F 29.70 in SE 2.0 mph 4.0 mph 81% 0.00 in
09:34 63.5 °F 57.6 °F 29.70 in SE 3.0 mph 5.0 mph 81% 0.00 in
09:39 63.6 °F 57.7 °F 29.70 in Calm   3.0 mph 81% 0.00 in
09:44 64.4 °F 58.5 °F 29.70 in SSE 2.0 mph 5.0 mph 81% 0.00 in
09:49 65.2 °F 58.9 °F 29.70 in South 4.0 mph 5.0 mph 80% 0.00 in
09:54 65.7 °F 59.4 °F 29.70 in SSE 5.0 mph 6.0 mph 80% 0.00 in
09:59 65.8 °F 59.1 °F 29.70 in SSE 6.0 mph 6.0 mph 79% 0.00 in
10:04 65.9 °F 59.2 °F 29.70 in SSW 3.0 mph 6.0 mph 79% 0.00 in
10:09 66.1 °F 59.8 °F 29.70 in SSE 3.0 mph 7.0 mph 80% 0.00 in
10:14 66.6 °F 60.2 °F 29.70 in SSE 5.0 mph 7.0 mph 80% 0.00 in
10:19 67.5 °F 60.4 °F 29.69 in SE 3.0 mph 6.0 mph 78% 0.00 in
10:24 68.2 °F 60.3 °F 29.70 in South 5.0 mph 7.0 mph 76% 0.00 in
10:30 68.9 °F 60.7 °F 29.69 in SSE 6.0 mph 9.0 mph 75% 0.00 in
10:35 69.4 °F 60.0 °F 29.69 in SSW 2.0 mph 10.0 mph 72% 0.00 in
10:40 69.9 °F 61.2 °F 29.69 in SSE 6.0 mph 8.0 mph 74% 0.00 in
10:45 70.1 °F 60.3 °F 29.69 in SSE 4.0 mph 8.0 mph 71% 0.00 in
10:50 70.3 °F 61.2 °F 29.68 in SSE 6.0 mph 7.0 mph 73% 0.00 in
10:55 70.5 °F 61.0 °F 29.68 in SSE 2.0 mph 9.0 mph 72% 0.00 in
11:00 70.5 °F 60.7 °F 29.68 in SSW 4.0 mph 7.0 mph 71% 0.00 in
11:05 70.8 °F 60.9 °F 29.68 in SSE 5.0 mph 9.0 mph 71% 0.00 in
11:10 71.0 °F 61.1 °F 29.68 in South 4.0 mph 8.0 mph 71% 0.00 in
11:15 71.1 °F 61.2 °F 29.67 in SSW 5.0 mph 8.0 mph 71% 0.00 in
11:20 71.3 °F 60.6 °F 29.67 in South 3.0 mph 7.0 mph 69% 0.00 in
11:25 71.8 °F 61.9 °F 29.67 in SSW 5.0 mph 6.0 mph 71% 0.00 in
11:30 72.7 °F 61.5 °F 29.67 in South 6.0 mph 6.0 mph 68% 0.00 in
11:35 72.8 °F 61.2 °F 29.66 in South 4.0 mph 7.0 mph 67% 0.00 in
11:40 73.0 °F 61.0 °F 29.66 in SSE 7.0 mph 9.0 mph 66% 0.00 in
11:45 73.3 °F 60.8 °F 29.66 in SSE 5.0 mph 10.0 mph 65% 0.00 in
11:50 73.5 °F 61.5 °F 29.66 in SE 8.0 mph 8.0 mph 66% 0.00 in
11:55 74.1 °F 61.2 °F 29.65 in SE 7.0 mph 9.0 mph 64% 0.00 in
12:00 74.1 °F 61.6 °F 29.65 in South 5.0 mph 9.0 mph 65% 0.00 in
12:05 74.2 °F 60.8 °F 29.65 in SSE 3.0 mph 8.0 mph 63% 0.00 in
12:10 74.2 °F 60.4 °F 29.65 in SSE 6.0 mph 8.0 mph 62% 0.00 in
12:15 74.9 °F 60.6 °F 29.65 in SSE 9.0 mph 9.0 mph 61% 0.00 in
12:20 75.2 °F 60.4 °F 29.65 in South 10.0 mph 13.0 mph 60% 0.00 in
12:25 75.3 °F 60.0 °F 29.65 in SSW 10.0 mph 13.0 mph 59% 0.00 in
12:30 75.3 °F 59.5 °F 29.65 in SE 9.0 mph 14.0 mph 58% 0.00 in
12:35 75.5 °F 59.2 °F 29.65 in SSE 9.0 mph 16.0 mph 57% 0.00 in
12:40 74.7 °F 58.5 °F 29.64 in SSE 6.0 mph 10.0 mph 57% 0.00 in
12:45 74.2 °F 58.5 °F 29.64 in SSW 6.0 mph 10.0 mph 58% 0.00 in
12:50 74.1 °F 59.3 °F 29.64 in SSE 7.0 mph 13.0 mph 60% 0.00 in
12:55 74.5 °F 59.7 °F 29.63 in SSW 3.0 mph 9.0 mph 60% 0.00 in
13:00 74.7 °F 59.4 °F 29.64 in SSW 5.0 mph 11.0 mph 59% 0.00 in
13:05 74.5 °F 58.3 °F 29.64 in SW 7.0 mph 16.0 mph 57% 0.00 in
13:10 74.5 °F 58.3 °F 29.63 in SSW 10.0 mph 10.0 mph 57% 0.00 in
13:15 74.8 °F 59.0 °F 29.63 in SW 5.0 mph 8.0 mph 58% 0.00 in
13:20 74.9 °F 59.1 °F 29.63 in SSW 9.0 mph 11.0 mph 58% 0.00 in
13:25 75.5 °F 59.2 °F 29.63 in SSW 7.0 mph 13.0 mph 57% 0.00 in
13:30 76.2 °F 59.9 °F 29.62 in SW 5.0 mph 11.0 mph 57% 0.00 in
13:35 76.6 °F 59.2 °F 29.62 in SW 4.0 mph 13.0 mph 55% 0.00 in
13:40 76.3 °F 57.4 °F 29.62 in SW 8.0 mph 14.0 mph 52% 0.00 in
13:45 75.7 °F 58.9 °F 29.61 in SSW 4.0 mph 7.0 mph 56% 0.00 in
13:50 75.9 °F 56.5 °F 29.60 in South 9.0 mph 15.0 mph 51% 0.00 in
13:55 76.5 °F 55.9 °F 29.60 in SSW 8.0 mph 13.0 mph 49% 0.00 in
14:00 76.0 °F 56.0 °F 29.59 in SW 11.0 mph 16.0 mph 50% 0.00 in
14:05 75.6 °F 56.8 °F 29.59 in South 11.0 mph 14.0 mph 52% 0.00 in
14:10 75.5 °F 57.2 °F 29.59 in South 6.0 mph 13.0 mph 53% 0.00 in
14:15 75.3 °F 56.5 °F 29.59 in SSW 10.0 mph 14.0 mph 52% 0.00 in
14:20 75.4 °F 56.6 °F 29.59 in SW 8.0 mph 13.0 mph 52% 0.00 in
14:26 75.7 °F 56.8 °F 29.59 in SSW 7.0 mph 11.0 mph 52% 0.00 in
14:31 76.7 °F 59.3 °F 29.59 in SW 3.0 mph 10.0 mph 55% 0.00 in
14:36 76.8 °F 57.3 °F 29.58 in West 6.0 mph 12.0 mph 51% 0.00 in
14:41 76.6 °F 58.2 °F 29.58 in SSW 6.0 mph 17.0 mph 53% 0.00 in
14:46 76.6 °F 58.7 °F 29.58 in SW 7.0 mph 11.0 mph 54% 0.00 in
14:51 76.6 °F 57.7 °F 29.57 in SSW 6.0 mph 11.0 mph 52% 0.00 in
14:56 76.8 °F 57.9 °F 29.56 in SSW 8.0 mph 10.0 mph 52% 0.00 in
15:01 77.1 °F 58.1 °F 29.56 in SSE 4.0 mph 10.0 mph 52% 0.00 in
15:06 76.9 °F 56.9 °F 29.56 in SW 10.0 mph 12.0 mph 50% 0.00 in
15:11 76.3 °F 56.3 °F 29.56 in SW 7.0 mph 11.0 mph 50% 0.00 in
15:16 76.4 °F 58.0 °F 29.56 in SSW 7.0 mph 9.0 mph 53% 0.00 in
15:21 76.2 °F 57.3 °F 29.55 in SW 3.0 mph 11.0 mph 52% 0.00 in
15:26 76.3 °F 57.9 °F 29.55 in South 4.0 mph 10.0 mph 53% 0.00 in
15:31 76.3 °F 57.4 °F 29.55 in SW 6.0 mph 10.0 mph 52% 0.00 in
15:36 75.9 °F 58.1 °F 29.54 in WSW 7.0 mph 11.0 mph 54% 0.00 in
15:41 75.7 °F 58.4 °F 29.55 in SSW 4.0 mph 10.0 mph 55% 0.00 in
15:46 75.5 °F 58.2 °F 29.54 in WSW 4.0 mph 9.0 mph 55% 0.00 in
15:51 75.2 °F 57.9 °F 29.54 in SSW 3.0 mph 8.0 mph 55% 0.00 in
15:56 75.1 °F 58.8 °F 29.53 in South 3.0 mph 6.0 mph 57% 0.00 in
16:01 75.0 °F 58.8 °F 29.53 in SW 5.0 mph 8.0 mph 57% 0.00 in
16:06 75.0 °F 59.2 °F 29.53 in SSW 5.0 mph 7.0 mph 58% 0.00 in
16:11 75.0 °F 58.8 °F 29.52 in SE 4.0 mph 7.0 mph 57% 0.00 in
16:16 75.2 °F 59.4 °F 29.52 in SW 5.0 mph 7.0 mph 58% 0.00 in
16:21 75.9 °F 59.1 °F 29.52 in SSW 5.0 mph 9.0 mph 56% 0.00 in
16:26 76.4 °F 60.1 °F 29.52 in SSW 3.0 mph 10.0 mph 57% 0.00 in
16:31 76.5 °F 59.2 °F 29.51 in SSE 6.0 mph 16.0 mph 55% 0.00 in
16:36 76.2 °F 59.9 °F 29.51 in South 4.0 mph 12.0 mph 57% 0.00 in
16:41 75.9 °F 59.6 °F 29.51 in SSW 6.0 mph 9.0 mph 57% 0.00 in
16:46 75.4 °F 59.6 °F 29.51 in SSE 4.0 mph 7.0 mph 58% 0.00 in
16:51 74.8 °F 59.5 °F 29.51 in SSW 3.0 mph 6.0 mph 59% 0.00 in
16:56 74.4 °F 59.2 °F 29.50 in SE 5.0 mph 10.0 mph 59% 0.00 in
17:01 73.8 °F 59.1 °F 29.50 in SE 8.0 mph 11.0 mph 60% 0.00 in
17:06 73.5 °F 59.2 °F 29.50 in South 5.0 mph 7.0 mph 61% 0.00 in
17:11 72.6 °F 60.2 °F 29.51 in NW 7.0 mph 17.0 mph 65% 0.00 in
17:16 68.4 °F 60.2 °F 29.50 in NNW 6.0 mph 17.0 mph 75% 0.00 in
17:21 64.7 °F 59.1 °F 29.58 in WNW 9.0 mph 31.0 mph 82% 0.00 in
17:26 60.9 °F 57.6 °F 29.54 in West 17.0 mph 23.0 mph 89% 0.37 in
17:31 59.1 °F 56.8 °F 29.56 in NW 14.0 mph 19.0 mph 92% 0.09 in
17:36 58.2 °F 55.9 °F 29.57 in WNW 6.0 mph 9.0 mph 92% 0.16 in
17:41 57.5 °F 55.5 °F 29.58 in WNW 6.0 mph 14.0 mph 93% 0.17 in
17:46 57.1 °F 55.4 °F 29.57 in NW 8.0 mph 10.0 mph 94% 0.09 in
17:51 56.8 °F 54.8 °F 29.57 in WNW 8.0 mph 14.0 mph 93% 0.05 in
17:56 56.1 °F 54.1 °F 29.58 in West 5.0 mph 10.0 mph 93% 0.04 in
18:02 55.7 °F 53.7 °F 29.58 in WNW 9.0 mph 11.0 mph 93% 0.00 in
18:06 55.0 °F 52.7 °F 29.58 in WNW 10.0 mph 15.0 mph 92% 0.00 in
18:12 54.5 °F 52.2 °F 29.57 in NW 5.0 mph 12.0 mph 92% 0.00 in
18:17 54.5 °F 52.5 °F 29.57 in NW 7.0 mph 11.0 mph 93% 0.00 in
18:22 54.4 °F 52.4 °F 29.57 in WNW 4.0 mph 12.0 mph 93% 0.00 in
18:27 54.0 °F 52.0 °F 29.57 in NW 9.0 mph 13.0 mph 93% 0.00 in
18:32 53.6 °F 51.6 °F 29.58 in NW 11.0 mph 14.0 mph 93% 0.00 in
18:37 53.3 °F 51.3 °F 29.58 in NW 6.0 mph 12.0 mph 93% 0.00 in
18:42 53.1 °F 51.1 °F 29.58 in WNW 10.0 mph 17.0 mph 93% 0.00 in
18:47 53.0 °F 51.3 °F 29.59 in NW 6.0 mph 12.0 mph 94% 0.00 in
18:52 52.7 °F 51.0 °F 29.59 in WNW 6.0 mph 11.0 mph 94% 0.00 in
18:57 52.4 °F 50.7 °F 29.60 in NW 9.0 mph 12.0 mph 94% 0.00 in
19:02 52.2 °F 50.5 °F 29.60 in NW 10.0 mph 13.0 mph 94% 0.00 in
19:07 52.1 °F 50.4 °F 29.60 in NNW 7.0 mph 9.0 mph 94% 0.00 in
19:12 52.1 °F 50.4 °F 29.60 in WNW 5.0 mph 11.0 mph 94% 0.00 in
19:17 52.0 °F 50.3 °F 29.60 in NW 6.0 mph 10.0 mph 94% 0.00 in
19:22 51.8 °F 50.1 °F 29.60 in WNW 9.0 mph 11.0 mph 94% 0.00 in
19:27 51.8 °F 50.4 °F 29.60 in NNW 8.0 mph 8.0 mph 95% 0.00 in
19:32 51.7 °F 50.0 °F 29.60 in NNW 8.0 mph 12.0 mph 94% 0.00 in
19:37 51.6 °F 49.9 °F 29.61 in NW 3.0 mph 9.0 mph 94% 0.00 in
19:42 51.6 °F 49.9 °F 29.61 in NNW 5.0 mph 8.0 mph 94% 0.00 in
19:47 51.4 °F 49.7 °F 29.61 in North 9.0 mph 11.0 mph 94% 0.00 in
19:52 51.4 °F 49.7 °F 29.61 in WNW 5.0 mph 10.0 mph 94% 0.00 in
19:57 51.3 °F 49.6 °F 29.61 in NW 5.0 mph 9.0 mph 94% 0.00 in
20:02 51.2 °F 49.8 °F 29.61 in NNW 4.0 mph 10.0 mph 95% 0.00 in
20:07 51.1 °F 49.4 °F 29.61 in NW 7.0 mph 12.0 mph 94% 0.00 in
20:12 51.0 °F 49.3 °F 29.61 in NNW 6.0 mph 10.0 mph 94% 0.00 in
20:17 50.9 °F 49.2 °F 29.61 in NW 6.0 mph 12.0 mph 94% 0.00 in
20:22 50.8 °F 48.8 °F 29.61 in WNW 7.0 mph 15.0 mph 93% 0.00 in
20:27 50.6 °F 48.7 °F 29.62 in NW 7.0 mph 12.0 mph 93% 0.00 in
20:32 50.6 °F 48.7 °F 29.62 in NW 9.0 mph 13.0 mph 93% 0.00 in
20:37 50.5 °F 48.6 °F 29.62 in NW 8.0 mph 14.0 mph 93% 0.00 in
20:42 50.4 °F 48.5 °F 29.62 in WNW 9.0 mph 12.0 mph 93% 0.00 in
20:47 50.1 °F 48.2 °F 29.63 in North 8.0 mph 13.0 mph 93% 0.00 in
20:52 49.8 °F 47.9 °F 29.63 in NW 9.0 mph 15.0 mph 93% 0.00 in
20:57 49.5 °F 47.3 °F 29.63 in WNW 17.0 mph 17.0 mph 92% 0.00 in
21:02 49.2 °F 46.7 °F 29.63 in NW 13.0 mph 13.0 mph 91% 0.00 in
21:07 49.0 °F 46.5 °F 29.63 in NW 13.0 mph 18.0 mph 91% 0.00 in
21:12 48.9 °F 46.4 °F 29.63 in North 13.0 mph 13.0 mph 91% 0.00 in
21:17 48.7 °F 46.2 °F 29.63 in NNW 6.0 mph 16.0 mph 91% 0.00 in
21:22 48.7 °F 46.2 °F 29.63 in NNW 10.0 mph 11.0 mph 91% 0.00 in
21:27 48.6 °F 46.4 °F 29.63 in NNW 5.0 mph 10.0 mph 92% 0.00 in
21:33 48.5 °F 46.3 °F 29.63 in WNW 4.0 mph 15.0 mph 92% 0.00 in
21:38 48.5 °F 46.3 °F 29.63 in WNW 7.0 mph 11.0 mph 92% 0.00 in
21:43 48.4 °F 46.2 °F 29.63 in WNW 10.0 mph 16.0 mph 92% 0.00 in
21:48 48.4 °F 46.2 °F 29.63 in NW 10.0 mph 15.0 mph 92% 0.00 in
21:53 48.3 °F 46.1 °F 29.63 in NNW 10.0 mph 12.0 mph 92% 0.00 in
21:58 48.2 °F 46.0 °F 29.63 in WNW 11.0 mph 16.0 mph 92% 0.00 in
22:03 48.2 °F 46.0 °F 29.64 in NW 7.0 mph 10.0 mph 92% 0.00 in
22:08 48.2 °F 45.7 °F 29.64 in NW 16.0 mph 16.0 mph 91% 0.00 in
22:13 48.2 °F 45.7 °F 29.64 in NW 6.0 mph 12.0 mph 91% 0.00 in
22:18 48.1 °F 45.6 °F 29.65 in North 9.0 mph 11.0 mph 91% 0.00 in
22:23 48.1 °F 45.9 °F 29.65 in NW 4.0 mph 9.0 mph 92% 0.00 in
22:28 48.1 °F 45.6 °F 29.65 in WNW 6.0 mph 10.0 mph 91% 0.00 in
22:33 48.0 °F 45.8 °F 29.64 in NW 6.0 mph 12.0 mph 92% 0.00 in
22:38 47.9 °F 46.0 °F 29.63 in NW 11.0 mph 11.0 mph 93% 0.00 in
22:43 47.7 °F 45.8 °F 29.63 in WNW 6.0 mph 12.0 mph 93% 0.00 in
22:48 47.6 °F 46.0 °F 29.64 in NW 7.0 mph 12.0 mph 94% 0.00 in
22:53 47.6 °F 46.0 °F 29.63 in NNW 5.0 mph 13.0 mph 94% 0.00 in
22:58 47.4 °F 45.8 °F 29.64 in NNW 5.0 mph 12.0 mph 94% 0.00 in
23:03 47.2 °F 45.8 °F 29.64 in West 8.0 mph 12.0 mph 95% 0.00 in
23:08 47.1 °F 45.7 °F 29.64 in NW 3.0 mph 12.0 mph 95% 0.00 in
23:13 47.1 °F 45.7 °F 29.64 in WNW 11.0 mph 11.0 mph 95% 0.00 in
23:18 47.0 °F 45.7 °F 29.64 in WNW 4.0 mph 14.0 mph 95% 0.00 in
23:23 47.0 °F 45.4 °F 29.64 in NW 10.0 mph 13.0 mph 94% 0.00 in
23:28 47.0 °F 45.7 °F 29.63 in NW 11.0 mph 14.0 mph 95% 0.00 in
23:33 46.9 °F 45.5 °F 29.63 in WNW 8.0 mph 10.0 mph 95% 0.00 in
23:38 46.9 °F 45.5 °F 29.64 in WNW 6.0 mph 9.0 mph 95% 0.00 in
23:43 46.9 °F 45.8 °F 29.64 in NW 6.0 mph 7.0 mph 96% 0.00 in
23:48 46.8 °F 45.7 °F 29.64 in NW 6.0 mph 10.0 mph 96% 0.00 in
23:53 46.7 °F 45.3 °F 29.64 in NW 7.0 mph 10.0 mph 95% 0.00 in
23:58 46.7 °F 45.1 °F 29.63 in NW 8.0 mph 17.0 mph 94% 0.00 in
Compliments of Weather Underground